星链-33755 (STARLINK-33755)

导读

STARLINK-33755是美国太空探索技术公司(SpaceX)星链(Starlink)星座中的一颗卫星,由美国于2025年4月14日发射升空。星链星座旨在为全球提供高速低延迟互联网接入服务,该卫星入轨后,将服务于全球偏远地区网络覆盖、海事航空等移动场景互联。

Basic Information
目录编号:
63579
目录名称:
STARLINK-33755
国际标识:
2025-076L
轨道中心:
EARTH
卫星名称:
星链-33755
卫星全名:
星链-33755 (STARLINK-33755)
卫星状态:
在轨 (已飞行508 天)
发射日期:
2025-04-14 UTC
国别 :
美国 (US)
星等 :
--
Orbit Information
数据来源 国际轨道数据 AOE轨道数据
星历时间 2026-09-03T19:49:03+0800
1天前
查看轨道信息
2026-09-02T18:00:00+0800
2天前
查看轨道信息
半长轴 6861.201km 6861.168km
偏心率 0.0001442 0.0004095
轨道倾角 43.000° 43.004°
近地点辐角 254.209° 291.431°
升交点赤经 37.416° 43.497°
平近点角 105.860° 265.938°
近地点 482.074km 480.221km
远地点 484.054km 485.841km
周期 94.267分钟 94.266分钟
每日圈数 15.275751 15.275862
Detailed Information
固有亮度:
5
最大亮度:
2.5
卫星平台:
Starlink V1.0
覆盖范围:
全球
运营商:
太空探索技术公司
运营商所在国:
美国
制造商(研发单位):
太空探索技术公司
制造商所在国:
美国
使用方式:
暂无
Satellite Introduction
Starlink 计划是 SpaceX 推出的全球卫星互联网项目,通过发射低轨道卫星,为全球尤其是偏远地区提供高速、低延迟的互联网服务。自 2019 年起,Starlink 已部署数千颗卫星,旨在缩小全球数字鸿沟,推动互联网普及。该项目还为军事、航空等行业提供通信支持,带来广泛经济效益。
2D Orbit Map
3D Orbit Map
Orbit Altitude Analysis Chart
Orbit Inclination Analysis Chart
Orbit Comprehensive Analysis Chart
View Comprehensive Chart
Conjunction Data List
Event ID Objects TCA Miss Dist (km) Collision Risk Probability Collision Risk Index (CRI) Action
CDM_260906-172305-916406-357921
2026-09-06T
17:23:34+0000
0.773 km
远距离
4.824866E-5 中风险 0.69
CDM_260906-152105-930406-357921
2026-09-06T
15:21:30+0000
0.952 km
远距离
2.05121E-5 中风险 0.61
CDM_260906-154905-916406-357921
2026-09-06T
15:49:24+0000
1.215 km
极远距离
1.040278E-5 中风险 0.55
CDM_260906-114605-940606-357921
2026-09-06T
11:46:35+0000
1.254 km
极远距离
7.767865E-6 低风险 0.53
CDM_260906-165505-930406-357921
2026-09-06T
16:55:39+0000
1.275 km
极远距离
7.478508E-6 低风险 0.52
CDM_260906-135805-303706-357921
2026-09-06T
13:58:46+0000
1.485 km
极远距离
2.978467E-6 低风险 0.44
CDM_260906-000005-940606-357921
2026-09-06T
00:00:25+0000
2.224 km
极远距离
1.485899E-6 低风险 0.38
CDM_260906-185705-916406-357921
2026-09-06T
18:57:43+0000
2.782 km
极远距离
1.174677E-6 低风险 0.36